[Date Prev][Date Next][Thread Prev][Thread Next] - [Date Index][Thread Index][Author Index]

2 Line ISS Keps 5-5



ISS
1 25544U 98067A   04126.47772825  .00016869  00000-0  14628-3 0  7133
2 25544  51.6279 183.4265 0011145 101.8419   0.8901 15.69193893311611


----
Via the sarex mailing list at AMSAT.ORG courtesy of AMSAT-NA.
To unsubscribe, send "unsubscribe sarex" to Majordomo@amsat.org



AMSAT Top AMSAT Home